Iliamna, AK

5:23 PM AKST on January 16, 2018 (GMT -0900)
Iliamna

Weather History for PAIL - February, 2014

Change the Weather History Date:

Thursday, February 20, 2014

  Actual Average Record
Temperature  
Mean Temperature 6 °F -  
Max Temperature 19 °F 22 °F 45 °F (2015)
Min Temperature -6 °F 9 °F -26 °F (1956)
Degree Days  
Heating Degree Days 58    
Moisture  
Dew Point -1 °F    
Average Humidity 70    
Maximum Humidity 83    
Minimum Humidity 42    
Precipitation  
Precipitation 0.00 in - - ()
Snow  
Snow 0.00 in - - ()
Snow Depth 2.00 in    
Sea Level Pressure  
Sea Level Pressure 30.01 in    
Wind  
Wind Speed 8 mph (North)    
Max Wind Speed 13 mph    
Max Gust Speed 18 mph    
Visibility 10 miles    
Events      
Averages and records for this station are not official NWS values.
T = Trace of Precipitation, MM = Missing Value Source: NWS Daily Summary

Daily Weather History Graph

Daily Weather History Graph

Search for Another Location

Airport or City:

Trip Planner

Search our weather history database for the weather conditions in past years. The results will help you decide how hot, cold, wet, or windy it might be!

Date:

Astronomy

Feb. 20, 2014 Rise Set
Actual Time 8:42 AM AKST 6:25 PM AKST
Civil Twilight 7:59 AM AKST 7:08 PM AKST
Nautical Twilight 7:11 AM AKST 7:56 PM AKST
Astronomical Twilight 6:24 AM AKST 8:44 PM AKST
Moon 12:53 AM AKST (2/20) 10:02 AM AKST (2/20)
Length of Visible Light 11h 08m
Length of Day
9h 43m
Waning Gibbous, 69% of the Moon is Illuminated
Feb 20
Waning Gibbous
Feb 22
Last Quarter
Feb 28
New
Mar 8
First Quarter
Mar 16
Full

Hourly Weather History & Observations

Time (AKST) Temp. Windchill Dew Point Humidity Pressure Visibility Wind Dir Wind Speed Gust Speed Precip Events Conditions
12:53 AM -2.0 °F -16.6 °F -6.0 °F 83% 29.95 in 10.0 mi NNW 8.1 mph - N/A   Clear
1:53 AM -0.9 °F -8.9 °F -6.0 °F 79% 29.97 in 10.0 mi NW 3.5 mph - N/A   Clear
3:53 AM -0.9 °F -16.4 °F -5.1 °F 83% 30.00 in 10.0 mi North 9.2 mph - N/A   Scattered Clouds
4:53 AM -2.0 °F -15.4 °F -6.0 °F 83% 30.00 in 10.0 mi North 6.9 mph - N/A   Clear
5:53 AM -2.0 °F -16.6 °F -7.1 °F 79% 30.01 in 10.0 mi North 8.1 mph - N/A   Clear
6:53 AM -4.0 °F -19.0 °F -8.0 °F 83% 30.02 in 10.0 mi North 8.1 mph - N/A   Clear
7:53 AM -5.1 °F -19.1 °F -9.0 °F 83% 30.02 in 10.0 mi NNE 6.9 mph - N/A   Clear
8:53 AM -5.1 °F -21.5 °F -9.0 °F 83% 30.03 in 10.0 mi North 9.2 mph - N/A   Clear
9:53 AM -0.9 °F -14.1 °F -6.0 °F 79% 30.02 in 10.0 mi North 6.9 mph - N/A   Clear
10:53 AM 3.0 °F -10.5 °F -2.0 °F 80% 30.04 in 10.0 mi NNE 8.1 mph - N/A   Clear
11:53 AM 5.0 °F -6.9 °F -0.9 °F 76% 30.04 in 10.0 mi NNE 6.9 mph - N/A   Clear
12:53 PM 9.0 °F -5.1 °F 1.0 °F 70% 30.03 in 10.0 mi NNE 10.4 mph - N/A   Clear
1:53 PM 10.9 °F -4.1 °F 1.0 °F 64% 30.01 in 10.0 mi North 12.7 mph - N/A   Partly Cloudy
2:53 PM 14.0 °F -0.2 °F 1.9 °F 59% 29.99 in 10.0 mi North 12.7 mph 18.4 mph N/A   Scattered Clouds
3:53 PM 16.0 °F 3.6 °F 3.0 °F 57% 29.99 in 10.0 mi NNE 10.4 mph - N/A   Mostly Cloudy
4:53 PM 15.1 °F 9.4 °F 3.9 °F 61% 29.99 in 10.0 mi North 3.5 mph - N/A   Scattered Clouds
5:53 PM 12.9 °F 1.6 °F 3.9 °F 67% 29.99 in 10.0 mi North 8.1 mph - N/A   Overcast
6:53 PM 14.0 °F 3.9 °F 5.0 °F 67% 29.99 in 10.0 mi North 6.9 mph - N/A   Overcast
7:53 PM 15.1 °F 5.2 °F 6.1 °F 68% 29.99 in 10.0 mi North 6.9 mph - N/A   Overcast
8:53 PM 16.0 °F 5.3 °F 3.0 °F 57% 30.00 in 10.0 mi NNE 8.1 mph - N/A   Overcast
9:53 PM 15.1 °F 5.2 °F 6.1 °F 68% 30.01 in 10.0 mi NNE 6.9 mph - N/A   Partly Cloudy
10:53 PM 19.0 °F 8.2 °F 8.1 °F 62% 30.02 in 10.0 mi NNE 9.2 mph - N/A   Scattered Clouds
11:53 PM 18.0 °F 6.9 °F 7.0 °F 62% 30.03 in 10.0 mi NE 9.2 mph - N/A   Partly Cloudy